Location: Barcelona
(41.3829°N, 2.1774°E)
Time: 21:28:15
(UTC+00:00)

ISS - Pass Details

Date: 07 July 2025
Orbit: 413 x 417 km, 51.6° (Epoch: 13 July)

Event Time Altitude Azimuth Distance (km) Brightness Sun altitude
Rises 03:14:23 0° 308° (NW) 2,360 0.0 -11.3°
Reaches altitude 10° 03:16:31 10° 313° (NW) 1,495 -1.0 -11.0°
Maximum altitude 03:19:48 52° 31° (NNE) 524 -2.8 -10.6°
Drops below altitude 10° 03:23:05 10° 109° (ESE) 1,490 -0.6 -10.1°
Sets 03:25:12 0° 115° (ESE) 2,351 0.4 -9.8°
